Flag for U.S.A. Weather past 2 weeks in Milwaukee, Wisconsin, U.S.A.

Now
66 °F

Light rain. Cloudy.


Feels Like: 66 °F
Forecast: 63 / 68 °F
Wind: No wind

Location: Milwaukee / Timmerman

Current Time: Aug 28, 2015 at 8:15:48 PM

Latest Report: Aug 28, 2015 at 7:45 PM


Visibility: 5 mi

Pressure: 30.11 "Hg

Humidity: 88%

Dew point: 63 °F

Location of MilwaukeeLocation

Historic Weather in Milwaukee — Graph

°F

Milwaukee temperature yesterday

Maximum temperature yesterday: 73 °F (at 2:45 PM)
Minimum temperature yesterday: 50 °F (at 12:55 AM)
Average temperature yesterday: 58 °F

Past Weeks' High & Low Weather Summary

 TemperatureHumidityPressure
High91 °F (Aug 14, 3:45 PM)94% (Aug 15, 4:35 AM)30.23 "Hg (Aug 15, 4:35 AM)
Low50 °F (Aug 21, 5:35 AM)29% (Aug 27, 11:45 AM)29.61 "Hg (Aug 19, 5:15 AM)
Average66 °F71%29.99 "Hg
* Reported Aug 13 7:45 PM — Aug 28 6:50 PM, Milwaukee, Weather by CustomWeather, © 2015

Note: Actual official high and low records may vary slightly from our data, if they occured in-between our weather recording intervals... More about our weather records

Advertising

Milwaukee weather history for previous 24 hours

 ConditionsComfort  
Time TempWeatherWind HumidityBarometerVisibility
6:50 PM
Fri, Aug 28
66 °FLight rain. Cloudy.No wind88%30.10 "Hg7 mi
5:45 PM70 °FLight rain. Cloudy.No wind69%30.08 "Hg10 mi
4:45 PM70 °FOvercast.No wind64%30.10 "Hg10 mi
3:50 PM72 °FSunny.No wind61%30.10 "Hg10 mi
2:45 PM72 °FSunny.5 mph61%30.12 "Hg10 mi
1:45 PM72 °FScattered clouds.7 mph61%30.13 "Hg10 mi
12:45 PM72 °FSunny.7 mph61%30.14 "Hg10 mi
11:45 AM72 °FSunny.5 mph61%30.14 "Hg10 mi
10:45 AM72 °FSunny.5 mph57%30.14 "Hg10 mi
9:45 AM70 °FSunny.5 mph60%30.14 "Hg10 mi
8:45 AM66 °FSunny.No wind68%30.14 "Hg10 mi
7:45 AM61 °FSunny.No wind83%30.15 "Hg5 mi
7:15 AM57 °FFog.No wind88%30.14 "Hg5 mi
6:55 AM54 °FFog.No wind94%30.15 "Hg4 mi
6:35 AM54 °FFog.No wind94%30.14 "Hg4 mi
6:15 AM54 °FFog.No wind88%30.14 "Hg4 mi
5:55 AM54 °FFog.No wind94%30.13 "Hg3 mi
5:35 AM55 °FFog.3 mph88%30.13 "Hg5 mi
5:15 AM55 °FFog.No wind88%30.13 "Hg5 mi
4:55 AM55 °FClear.3 mph88%30.12 "Hg7 mi
4:35 AM55 °FClear.3 mph88%30.12 "Hg7 mi
4:15 AM55 °FClear.5 mph88%30.12 "Hg7 mi
3:55 AM57 °FClear.No wind82%30.12 "Hg7 mi
3:35 AM57 °FClear.3 mph82%30.12 "Hg10 mi
3:15 AM57 °FClear.5 mph82%30.12 "Hg10 mi
2:55 AM57 °FPassing clouds.3 mph82%30.13 "Hg10 mi
2:35 AM59 °FOvercast.5 mph77%30.12 "Hg10 mi
2:15 AM59 °FPassing clouds.3 mph77%30.13 "Hg10 mi
1:55 AM59 °FPassing clouds.3 mph77%30.13 "Hg10 mi
1:35 AM57 °FPassing clouds.3 mph82%30.14 "Hg10 mi
1:15 AM57 °FClear.3 mph82%30.14 "Hg10 mi
12:55 AM59 °FClear.5 mph77%30.13 "Hg10 mi
12:15 AM59 °FClear.3 mph77%30.14 "Hg10 mi
11:55 PM
Thu, Aug 27
59 °FClear.3 mph77%30.14 "Hg10 mi
10:55 PM59 °FClear.5 mph77%30.13 "Hg10 mi
10:15 PM61 °FClear.3 mph72%30.14 "Hg10 mi
9:55 PM61 °FClear.3 mph72%30.14 "Hg10 mi
9:35 PM61 °FClear.5 mph72%30.15 "Hg10 mi
9:15 PM63 °FClear.3 mph64%30.14 "Hg10 mi
8:45 PM63 °FClear.5 mph64%30.14 "Hg10 mi
Weather by CustomWeather, © 2015

See weather overviewHow to use our weather pages